Location: Hohe Wand Kleine Kanzel
(47.8330°N, 16.0170°E)
Time: 19:26:04
(UTC+02:00)

Transit 4A - All Passes

Search period start: 28 July 2021 00:00
Search period end: 07 August 2021 00:00
Orbit: 872 x 972 km, 66.8° (Epoch: 28 July)

Date Brightness Start Highest point End Pass type
(mag) Time Alt. Az. Time Alt. Az. Time Alt. Az.
28 Jul - 00:01:40 10° ESE 00:02:45 11° E 00:03:51 10° E visible
28 Jul - 01:42:09 10° SSW 01:47:58 64° ESE 01:53:45 10° NE visible
28 Jul - 03:29:33 10° WSW 03:34:44 31° NW 03:39:53 10° NNE visible
28 Jul - 05:20:21 10° NW 05:23:04 13° NNW 05:25:46 10° NNE daylight
28 Jul - 07:09:25 10° NNW 07:12:10 13° NNE 07:14:54 10° NE daylight
28 Jul - 08:55:18 10° NNW 09:00:29 32° NE 09:05:43 10° ESE daylight
28 Jul - 10:41:26 10° NW 10:47:14 63° WSW 10:53:06 10° SSE daylight
28 Jul - 12:31:26 10° W 12:32:27 10° W 12:33:27 10° WSW daylight
29 Jul - 00:08:09 10° SE 00:11:42 17° ESE 00:15:14 10° ENE visible
29 Jul - 01:51:19 10° SSW 01:57:14 89° ESE 02:03:06 10° NE visible
29 Jul - 03:39:36 10° W 03:44:21 25° NW 03:49:04 10° NNE visible
29 Jul - 05:30:44 10° NNW 05:32:57 12° N 05:35:10 10° NNE daylight
29 Jul - 07:18:42 10° NNW 07:22:01 15° NNE 07:25:21 10° NE daylight
29 Jul - 09:04:29 10° NNW 09:10:01 41° NE 09:15:36 10° ESE daylight
29 Jul - 10:50:54 10° NW 10:56:25 44° WSW 11:02:01 10° S daylight
30 Jul - 00:16:04 10° SSE 00:20:42 24° ESE 00:25:19 10° NE visible
30 Jul - 02:00:42 10° SW 02:06:33 67° NW 02:12:24 10° NNE visible
30 Jul - 03:49:48 10° WNW 03:54:01 20° NNW 03:58:15 10° NNE visible
30 Jul - 05:40:55 10° NNW 05:42:52 12° N 05:44:49 10° NNE daylight
30 Jul - 07:27:54 10° NNW 07:31:48 18° NNE 07:35:44 10° ENE daylight
30 Jul - 09:13:43 10° NNW 09:19:28 55° NE 09:25:18 10° SE daylight
30 Jul - 11:00:29 10° NW 11:05:33 31° WSW 11:10:40 10° S daylight
31 Jul - 00:24:30 10° S 00:29:47 35° ESE 00:35:01 10° NE visible
31 Jul - 02:10:17 10° WSW 02:15:59 49° NW 02:21:38 10° NNE visible
31 Jul - 04:00:07 10° WNW 04:03:47 17° NNW 04:07:27 10° NNE visible
31 Jul - 05:50:45 10° NNW 05:52:47 12° N 05:54:49 10° NNE daylight
31 Jul - 07:37:04 10° NNW 07:41:32 22° NNE 07:46:01 10° E daylight
31 Jul - 09:22:58 10° NNW 09:28:51 76° NE 09:34:49 10° SE daylight
31 Jul - 11:10:18 10° WNW 11:14:35 21° WSW 11:18:56 10° SSW daylight
01 Aug - 00:33:15 10° S 00:38:55 51° ESE 00:44:34 10° NE visible
01 Aug - 02:20:04 10° WSW 02:25:28 37° NW 02:30:51 10° NNE visible
01 Aug - 04:10:31 10° NW 04:13:36 14° NNW 04:16:39 10° NNE visible
01 Aug - 06:00:17 10° NNW 06:02:41 12° N 06:05:06 10° NE daylight
01 Aug - 07:46:15 10° NNW 07:51:12 27° NE 07:56:10 10° E daylight
01 Aug - 09:32:17 10° NW 09:38:10 79° WSW 09:44:07 10° SSE daylight
01 Aug - 11:20:37 10° WNW 11:23:35 14° WSW 11:26:34 10° SW daylight
01 Aug - 23:00:29 10° SE 23:02:49 12° ESE 23:05:09 10° ENE visible
02 Aug - 00:42:16 10° SSW 00:48:08 72° ESE 00:53:58 10° NE visible
02 Aug - 02:30:00 10° W 02:35:02 29° NW 02:40:02 10° NNE visible
02 Aug - 04:20:57 10° NW 04:23:28 13° NNW 04:25:58 10° NNE visible
02 Aug - 06:09:37 10° NNW 06:12:34 14° NNE 06:15:32 10° NE daylight
02 Aug - 07:55:26 10° NNW 08:00:46 35° NE 08:06:09 10° ESE daylight
02 Aug - 09:41:40 10° NW 09:47:23 56° WSW 09:53:12 10° SSE daylight
02 Aug - 23:07:47 10° SSE 23:11:47 19° ESE 23:15:45 10° ENE visible
03 Aug - 00:51:31 10° SW 00:57:26 82° NW 01:03:18 10° NNE visible
03 Aug - 02:40:07 10° W 02:44:39 23° NNW 02:49:13 10° NNE visible
03 Aug - 04:31:17 10° NNW 04:33:22 12° N 04:35:27 10° NNE visible
03 Aug - 06:18:51 10° NNW 06:22:24 16° NNE 06:25:57 10° ENE daylight
03 Aug - 08:04:39 10° NNW 08:10:17 46° NE 08:15:59 10° ESE daylight
03 Aug - 09:51:10 10° NW 09:56:34 39° WSW 10:02:02 10° S daylight
03 Aug - 23:15:55 10° SSE 23:20:49 28° ESE 23:25:40 10° NE visible
04 Aug - 01:00:58 10° SW 01:06:47 60° NW 01:12:34 10° NNE visible
04 Aug - 02:50:21 10° WNW 02:54:22 19° NNW 02:58:24 10° NNE visible
04 Aug - 04:41:20 10° NNW 04:43:17 12° N 04:45:14 10° NNE visible
04 Aug - 06:28:02 10° NNW 06:32:10 19° NNE 06:36:18 10° ENE daylight
04 Aug - 08:13:53 10° NNW 08:19:43 62° NE 08:25:37 10° SE daylight
04 Aug - 10:00:49 10° NW 10:05:40 27° WSW 10:10:33 10° SSW daylight
04 Aug - 23:24:28 10° S 23:29:55 40° ESE 23:35:18 10° NE visible
05 Aug - 01:10:38 10° WSW 01:16:13 44° NW 01:21:48 10° NNE visible
05 Aug - 03:00:43 10° WNW 03:04:09 16° NNW 03:07:36 10° NNE visible
05 Aug - 04:51:03 10° NNW 04:53:12 12° N 04:55:21 10° NNE visible
05 Aug - 06:37:13 10° NNW 06:41:52 23° NNE 06:46:32 10° E daylight
05 Aug - 08:23:10 10° NW 08:29:03 85° NE 08:35:03 10° SE daylight
05 Aug - 10:10:46 10° WNW 10:14:41 19° WSW 10:18:39 10° SSW daylight
05 Aug - 23:33:20 10° SSW 23:39:04 58° ESE 23:44:48 10° NE visible
06 Aug - 01:20:28 10° WSW 01:25:44 33° NW 01:31:00 10° NNE visible
06 Aug - 03:11:07 10° NW 03:13:59 14° NNW 03:16:51 10° NNE visible
06 Aug - 05:00:30 10° NNW 05:03:06 13° NNE 05:05:42 10° NE visible
06 Aug - 06:46:24 10° NNW 06:51:29 30° NE 06:56:38 10° E daylight
06 Aug - 08:32:29 10° NW 08:38:20 70° WSW 08:44:17 10° SSE daylight
06 Aug - 10:21:27 10° W 10:23:39 12° WSW 10:25:51 10° WSW daylight
06 Aug - 21:59:49 10° SE 22:02:53 15° ESE 22:05:56 10° ENE visible
06 Aug - 23:42:25 10° SSW 23:48:19 81° ESE 23:54:10 10° NE visible
